Falfurrias, TX

5:39 PM CDT on July 15, 2019 (GMT -0500)
Falfurrias

Weather History for KBKS - May, 2019

Change the Weather History Date:

Thursday, May 9, 2019

  Actual Average (KNQI) Record (KNQI)
Temperature  
Mean Temperature 82 °F -  
Max Temperature 89 °F 85 °F 102 °F (1998)
Min Temperature 76 °F 68 °F 62 °F (2001)
Cooling Degree Days 17    
Growing Degree Days 32 (Base 50)    
Moisture  
Dew Point 74 °F    
Average Humidity 80    
Maximum Humidity 91    
Minimum Humidity 61    
Precipitation  
Precipitation 0.00 in - - ()
Sea Level Pressure  
Sea Level Pressure 29.71 in    
Wind  
Wind Speed 6 mph (East)    
Max Wind Speed 13 mph    
Max Gust Speed 17 mph    
Visibility 5 miles    
Events      
Averages and records for this station are not official NWS values.
T = Trace of Precipitation, MM = Missing Value Source: NWS Daily Summary

Daily Weather History Graph

Daily Weather History Graph

Search for Another Location

Airport or City:

Astronomy

May. 09, 2019 Rise Set
Actual Time 6:47 AM CDT 8:10 PM CDT
Civil Twilight 6:23 AM CDT 8:35 PM CDT
Nautical Twilight 5:53 AM CDT 9:05 PM CDT
Astronomical Twilight 5:22 AM CDT 9:36 PM CDT
Moon 10:52 AM CDT (5/9) 12:02 AM CDT (5/9)
Length of Visible Light 14h 12m
Length of Day
13h 22m
Waxing Crescent, 25% of the Moon is Illuminated
May 9
Waxing Crescent
May 11
First Quarter
May 18
Full
May 26
Last Quarter
Jun 3
New

Hourly Weather History & Observations

Time (CDT) Temp. Heat Index Dew Point Humidity Pressure Visibility Wind Dir Wind Speed Gust Speed Precip Events Conditions
12:15 AM 80.6 °F 86.2 °F 75.2 °F 84% 29.70 in 5.0 mi SE 6.9 mph - N/A   Overcast
12:35 AM 80.6 °F 86.2 °F 75.4 °F 84% 29.70 in 5.0 mi SE 5.8 mph - N/A   Overcast
12:55 AM 80.4 °F 86.0 °F 75.4 °F 85% 29.70 in 5.0 mi SE 8.1 mph - N/A   Overcast
1:15 AM 80.1 °F 85.2 °F 75.4 °F 86% 29.70 in 5.0 mi SE 5.8 mph - N/A   Overcast
1:35 AM 80.1 °F 85.1 °F 75.2 °F 85% 29.70 in 5.0 mi SE 6.9 mph - N/A   Overcast
1:55 AM 80.1 °F 85.1 °F 75.2 °F 85% 29.70 in 5.0 mi SE 5.8 mph - N/A   Overcast
2:15 AM 80.1 °F 85.1 °F 75.2 °F 85% 29.69 in 5.0 mi SE 4.6 mph - N/A   Overcast
2:35 AM 79.7 °F - 74.8 °F 85% 29.69 in 5.0 mi ESE 3.5 mph - N/A   Overcast
2:55 AM 78.8 °F - 74.5 °F 87% 29.69 in 4.0 mi ESE 4.6 mph - N/A   Overcast
3:15 AM 78.1 °F - 74.3 °F 88% 29.69 in 4.0 mi East 3.5 mph - N/A   Overcast
3:35 AM 77.5 °F - 74.5 °F 90% 29.68 in 3.0 mi East 3.5 mph - N/A   Overcast
3:55 AM 77.5 °F - 74.5 °F 90% 29.68 in 3.0 mi East 3.5 mph - N/A   Overcast
4:15 AM 77.9 °F - 74.7 °F 90% 29.68 in 3.0 mi ESE 4.6 mph - N/A   Overcast
4:35 AM 78.1 °F - 74.7 °F 89% 29.68 in 3.0 mi ESE 3.5 mph - N/A   Overcast
4:55 AM 78.3 °F - 74.7 °F 89% 29.69 in 3.0 mi East 3.5 mph - N/A   Overcast
5:15 AM 78.1 °F - 74.7 °F 89% 29.69 in 3.0 mi East 4.6 mph - N/A   Overcast
5:35 AM 77.9 °F - 74.3 °F 89% 29.70 in 3.0 mi ESE 4.6 mph - N/A   Overcast
5:55 AM 77.5 °F - 74.3 °F 90% 29.70 in 3.0 mi ESE 4.6 mph - N/A   Overcast
6:15 AM 77.2 °F - 73.9 °F 90% 29.69 in 3.0 mi East 4.6 mph - N/A   Overcast
6:35 AM 76.6 °F - 73.8 °F 91% 29.70 in 2.5 mi East 4.6 mph - N/A   Overcast
6:55 AM 76.5 °F - 73.8 °F 91% 29.70 in 2.5 mi East 3.5 mph - N/A   Overcast
7:15 AM 76.6 °F - 73.9 °F 91% 29.70 in 2.5 mi East 5.8 mph - N/A   Overcast
7:35 AM 77.0 °F - 74.1 °F 91% 29.71 in 2.5 mi East 4.6 mph - N/A   Overcast
7:55 AM 77.5 °F - 74.3 °F 90% 29.71 in 3.0 mi ESE 4.6 mph - N/A   Overcast
8:15 AM 78.3 °F - 74.7 °F 89% 29.72 in 3.0 mi East 4.6 mph - N/A   Overcast
8:35 AM 78.8 °F - 74.7 °F 87% 29.72 in 2.5 mi East 3.5 mph - N/A   Overcast
8:55 AM 79.3 °F - 75.2 °F 87% 29.72 in 3.0 mi East 4.6 mph - N/A   Overcast
9:15 AM 80.2 °F 85.5 °F 75.4 °F 85% 29.72 in 3.0 mi East 3.5 mph - N/A   Overcast
9:35 AM 81.5 °F 87.8 °F 75.2 °F 81% 29.72 in 4.0 mi East 5.8 mph - N/A   Overcast
9:55 AM 82.4 °F 89.0 °F 74.7 °F 77% 29.72 in 4.0 mi ESE 6.9 mph - N/A   Overcast
10:15 AM 81.7 °F 87.8 °F 74.5 °F 79% 29.72 in 4.0 mi ESE 5.8 mph - N/A   Overcast
10:35 AM 82.8 °F 89.0 °F 73.8 °F 74% 29.72 in 5.0 mi East 4.6 mph - N/A   Overcast
10:55 AM 83.3 °F 90.2 °F 74.1 °F 74% 29.73 in 5.0 mi ESE 6.9 mph - N/A   Overcast
11:15 AM 83.5 °F 90.6 °F 74.3 °F 74% 29.74 in 5.0 mi ESE 4.6 mph - N/A   Overcast
11:35 AM 83.5 °F 90.3 °F 74.1 °F 73% 29.74 in 5.0 mi ESE 5.8 mph - N/A   Overcast
11:55 AM 84.2 °F 90.9 °F 73.6 °F 70% 29.74 in 5.0 mi East 5.8 mph - N/A   Overcast
12:15 PM 84.7 °F 91.7 °F 73.4 °F 69% 29.74 in 5.0 mi East 6.9 mph - N/A   Mostly Cloudy
12:35 PM 84.9 °F 91.8 °F 73.4 °F 68% 29.74 in 5.0 mi East 4.6 mph - N/A   Mostly Cloudy
12:55 PM 87.3 °F 95.3 °F 73.9 °F 64% 29.73 in 5.0 mi East 6.9 mph - N/A   Mostly Cloudy
1:15 PM 88.0 °F 95.6 °F 73.2 °F 61% 29.73 in 5.0 mi ENE 4.6 mph - N/A   Scattered Clouds
1:35 PM 87.6 °F 95.7 °F 73.8 °F 63% 29.72 in 5.0 mi ENE 5.8 mph - N/A   Scattered Clouds
1:55 PM 88.0 °F 96.0 °F 73.6 °F 62% 29.71 in 5.0 mi NNE 5.8 mph - N/A   Mostly Cloudy
2:15 PM 87.8 °F 95.6 °F 73.2 °F 62% 29.71 in 5.0 mi NE 5.8 mph - N/A   Mostly Cloudy
2:35 PM 88.2 °F 96.0 °F 73.4 °F 61% 29.70 in 7.0 mi ENE 11.5 mph - N/A   Mostly Cloudy
3:55 PM 87.3 °F 95.3 °F 73.9 °F 64% 29.67 in 7.0 mi East 8.1 mph - N/A   Overcast
4:15 PM 87.3 °F 95.3 °F 73.9 °F 64% 29.67 in 7.0 mi East 9.2 mph - N/A   Mostly Cloudy
4:35 PM 85.5 °F 93.8 °F 74.7 °F 70% 29.67 in 7.0 mi East 9.2 mph 17.3 mph N/A   Overcast
4:55 PM 85.1 °F 92.9 °F 74.3 °F 70% 29.66 in 7.0 mi East 12.7 mph - N/A   Overcast
5:15 PM 85.3 °F 93.4 °F 74.3 °F 70% 29.66 in 7.0 mi East 12.7 mph - N/A   Overcast
5:35 PM 84.9 °F 92.5 °F 74.3 °F 70% 29.66 in 7.0 mi East 9.2 mph - N/A   Overcast
5:55 PM 84.4 °F 92.0 °F 74.3 °F 72% 29.67 in 7.0 mi East 9.2 mph 16.1 mph N/A   Mostly Cloudy
6:15 PM 84.0 °F 91.2 °F 73.9 °F 72% 29.66 in 7.0 mi East 10.4 mph - N/A   Mostly Cloudy
6:35 PM 83.3 °F 89.6 °F 73.6 °F 72% 29.66 in 7.0 mi East 11.5 mph - N/A   Mostly Cloudy
6:55 PM 82.8 °F 89.0 °F 73.6 °F 74% 29.68 in 7.0 mi East 12.7 mph - N/A   Mostly Cloudy
7:15 PM 82.4 °F 88.4 °F 73.8 °F 75% 29.68 in 7.0 mi East 11.5 mph - N/A   Mostly Cloudy
7:35 PM 81.7 °F 87.8 °F 74.5 °F 79% 29.69 in 7.0 mi East 10.4 mph - N/A   Mostly Cloudy
7:55 PM 81.1 °F 87.0 °F 74.7 °F 81% 29.71 in 7.0 mi East 8.1 mph - N/A   Overcast
8:15 PM 80.8 °F 86.3 °F 74.8 °F 82% 29.73 in 7.0 mi ENE 5.8 mph - N/A   Overcast
8:35 PM 80.6 °F 86.0 °F 74.8 °F 83% 29.72 in 7.0 mi ENE 5.8 mph - N/A   Overcast
8:55 PM 80.1 °F 84.9 °F 74.8 °F 84% 29.72 in 7.0 mi ENE 6.9 mph - N/A   Mostly Cloudy
9:15 PM 79.9 °F - 75.0 °F 85% 29.72 in 7.0 mi East 4.6 mph - N/A   Overcast
9:35 PM 79.7 °F - 75.0 °F 86% 29.72 in 7.0 mi NNE 4.6 mph - N/A   Overcast
9:55 PM 79.7 °F - 75.2 °F 86% 29.75 in 7.0 mi NE 3.5 mph - N/A   Overcast
10:15 PM 79.5 °F - 75.2 °F 87% 29.76 in 5.0 mi Calm Calm - N/A   Overcast
10:35 PM 78.8 °F - 75.2 °F 89% 29.76 in 5.0 mi ENE 4.6 mph - N/A   Overcast
10:55 PM 78.8 °F - 75.2 °F 89% 29.78 in 5.0 mi NE 5.8 mph - N/A   Overcast
11:15 PM 79.2 °F - 75.4 °F 88% 29.78 in 5.0 mi Calm Calm - N/A   Overcast
11:35 PM 79.0 °F - 75.2 °F 88% 29.77 in 5.0 mi ENE 6.9 mph - N/A   Overcast
11:55 PM 78.8 °F - 75.4 °F 89% 29.78 in 5.0 mi Calm Calm - N/A   Overcast